Weather History for Sidney, NE

Change the Weather History Date:

Sunday, May 20, 2012

  Actual Average Record
Temperature  
Mean Temperature 55 °F 59 °F  
Max Temperature 77 °F 73 °F 93 °F (1974)
Min Temperature 32 °F 45 °F 27 °F (2003)
Degree Days  
Heating Degree Days 10 7  
Month to date heating degree days 145 190  
Since 1 July heating degree days 5552 6102  
Cooling Degree Days 0 1  
Month to date cooling degree days 20 11  
Year to date cooling degree days 27 12  
Growing Degree Days 4 (Base 50)    
Moisture  
Dew Point 42 °F    
Average Humidity 62    
Maximum Humidity 92    
Minimum Humidity 31    
Precipitation  
Precipitation 0.09 in 0.10 in 0.65 in (1961)
Month to date precipitation 0.28 1.92  
Year to date precipitation 2.41 5.59  
Sea Level Pressure  
Sea Level Pressure 30.19 in    
Wind  
Wind Speed 10 mph (SSE)    
Max Wind Speed 22 mph    
Max Gust Speed 30 mph    
Visibility 8 miles    
Events Rain , Thunderstorm    
T = Trace of Precipitation, MM = Missing Value Source: NWS Daily Summary

Daily Weather History Graph

Daily Weather History Graph

Search for Another Location

Airport:

Trip Planner

Search our weather history database for the weather conditions in past years. The results will help you decide how hot, cold, wet, or windy it might be!

Date:

Astronomy

May. 20, 2012 Rise Set
Actual Time 5:28 AM MDT 8:08 PM MDT
Civil Twilight 4:57 AM MDT 8:40 PM MDT
Nautical Twilight 4:17 AM MDT 9:20 PM MDT
Astronomical Twilight 3:32 AM MDT 10:06 PM MDT
Moon 5:11 AM MDT (5/20) 8:09 PM MDT (5/20)
Length of Visible Light 15h 43m
Length of Day
14h 39m
Waning Crescent, 0% of the Moon is Illuminated
May 20
Waning Crescent
May 20
New
May 28
First Quarter
Jun 4
Full
Jun 11
Last Quarter

Hourly Weather History & Observations

Time (MDT) Temp. Windchill Dew Point Humidity Pressure Visibility Wind Dir Wind Speed Gust Speed Precip Events Conditions
12:53 AM 37.9 °F 31.5 °F 35.1 °F 89% 30.17 in 10.0 mi WSW 9.2 mph - N/A   Clear
1:53 AM 42.1 °F 37.1 °F 37.9 °F 85% 30.17 in 10.0 mi WNW 8.1 mph - N/A   Clear
2:53 AM 35.1 °F 32.2 °F 33.1 °F 92% 30.19 in 9.0 mi West 3.5 mph - N/A   Clear
4:53 AM 34.0 °F 31.0 °F 30.9 °F 89% 30.20 in 8.0 mi NE 3.5 mph - N/A   Clear
5:28 AM 33.8 °F 30.8 °F 30.2 °F 87% 30.23 in 1.8 mi SSE 3.5 mph - N/A   Clear
5:39 AM 33.8 °F - 30.2 °F 87% 30.23 in 3.0 mi Calm Calm - N/A   Clear
5:53 AM 33.1 °F - 30.0 °F 89% 30.23 in 5.0 mi Calm Calm - N/A   Clear
6:53 AM 46.0 °F - 42.1 °F 86% 30.22 in 5.0 mi Calm Calm - N/A   Clear
8:53 AM 57.9 °F - 44.1 °F 60% 30.24 in 10.0 mi SE 10.4 mph - N/A   Clear
9:53 AM 61.0 °F - 44.1 °F 54% 30.25 in 10.0 mi SSE 16.1 mph - N/A   Clear
10:53 AM 64.0 °F - 45.0 °F 50% 30.25 in 10.0 mi South 9.2 mph 18.4 mph N/A   Clear
11:53 AM 66.9 °F - 44.1 °F 44% 30.23 in 10.0 mi SSE 8.1 mph 20.7 mph N/A   Partly Cloudy
12:53 PM 72.0 °F - 43.0 °F 35% 30.20 in 10.0 mi SSE 8.1 mph 18.4 mph N/A   Partly Cloudy
1:53 PM 71.1 °F - 42.1 °F 35% 30.17 in 10.0 mi South 10.4 mph - N/A   Mostly Cloudy
2:53 PM 72.0 °F - 41.0 °F 33% 30.16 in 10.0 mi South 12.7 mph 23.0 mph N/A   Partly Cloudy
3:53 PM 75.9 °F - 42.1 °F 30% 30.12 in 10.0 mi SSE 18.4 mph 24.2 mph N/A   Mostly Cloudy
4:53 PM 71.1 °F - 42.1 °F 35% 30.13 in 10.0 mi SE 16.1 mph 26.5 mph N/A   Scattered Clouds
5:37 PM 69.8 °F - 42.8 °F 38% 30.19 in 10.0 mi SE 15.0 mph - 0.00 in Rain , Thunderstorm Light Rain
5:53 PM 64.9 °F - 48.9 °F 56% 30.17 in 10.0 mi East 11.5 mph - 0.01 in Rain , Thunderstorm Light Rain
6:15 PM 62.6 °F - 53.6 °F 72% 30.22 in 2.5 mi ENE 10.4 mph - 0.08 in Rain , Thunderstorm Rain
6:18 PM 64.4 °F - 53.6 °F 68% 30.22 in 5.0 mi East 11.5 mph - 0.08 in Rain Light Rain
7:53 PM 59.0 °F - 48.9 °F 69% 30.14 in 10.0 mi SE 13.8 mph - N/A   Clear
8:53 PM 55.9 °F - 48.0 °F 75% 30.15 in 10.0 mi SSE 16.1 mph - N/A   Clear
9:53 PM 55.9 °F - 48.0 °F 75% 30.16 in 10.0 mi SSE 15.0 mph - N/A   Clear
10:53 PM 55.0 °F - 46.9 °F 74% 30.16 in 10.0 mi SSE 15.0 mph 21.9 mph N/A   Clear
11:53 PM 55.0 °F - 46.0 °F 72% 30.15 in 10.0 mi SSE 16.1 mph 24.2 mph N/A   Clear